Time,TemperatureF,DewpointF,PressureIn,WindDirection,WindDirectionDegrees,WindSpeedMPH,WindSpeedGustMPH,Humidity,HourlyPrecipIn,Conditions,Clouds,dailyrainin,SoftwareType,DateUTC
2013-01-18 00:02:00,35.0,29.0,30.56,WNW,292,0.0,0.0,80,0.00,,,0.00,,2013-01-18 06:02:00,
2013-01-18 00:12:00,35.0,29.0,30.56,WNW,292,0.0,0.0,80,0.00,,,0.00,,2013-01-18 06:12:00,
2013-01-18 00:22:00,35.0,30.0,30.56,WNW,292,0.0,0.0,81,0.00,,,0.00,,2013-01-18 06:22:00,
2013-01-18 00:32:00,34.0,29.0,30.56,WNW,292,0.0,0.0,81,0.00,,,0.00,,2013-01-18 06:32:00,
2013-01-18 00:43:00,34.0,29.0,30.56,WNW,292,0.0,0.0,81,0.00,,,0.00,,2013-01-18 06:43:00,
2013-01-18 00:52:00,34.0,29.0,30.56,WNW,292,0.0,0.0,82,0.00,,,0.00,,2013-01-18 06:52:00,
2013-01-18 01:02:00,33.0,28.0,30.56,WNW,292,0.0,0.0,82,0.00,,,0.00,,2013-01-18 07:02:00,
2013-01-18 01:12:00,33.0,28.0,30.56,WNW,292,0.0,0.0,82,0.00,,,0.00,,2013-01-18 07:12:00,
2013-01-18 01:22:00,33.0,28.0,30.57,WNW,292,0.0,0.0,83,0.00,,,0.00,,2013-01-18 07:22:00,
2013-01-18 01:32:00,33.0,28.0,30.57,WNW,292,0.0,0.0,83,0.00,,,0.00,,2013-01-18 07:32:00,
2013-01-18 01:42:00,33.0,28.0,30.57,WNW,292,0.0,0.0,83,0.00,,,0.00,,2013-01-18 07:42:00,
2013-01-18 01:52:00,32.0,27.0,30.57,WNW,292,0.0,0.0,83,0.00,,,0.00,,2013-01-18 07:52:00,
2013-01-18 02:02:00,32.0,28.0,30.57,WNW,292,0.0,0.0,84,0.00,,,0.00,,2013-01-18 08:02:00,
2013-01-18 02:12:00,32.0,28.0,30.57,WNW,292,0.0,0.0,84,0.00,,,0.00,,2013-01-18 08:12:00,
2013-01-18 02:22:00,32.0,28.0,30.57,WNW,292,0.0,0.0,84,0.00,,,0.00,,2013-01-18 08:22:00,
2013-01-18 02:32:00,32.0,28.0,30.57,WNW,292,0.0,0.0,84,0.00,,,0.00,,2013-01-18 08:32:00,
2013-01-18 02:42:00,32.0,28.0,30.57,WNW,292,0.0,0.0,84,0.00,,,0.00,,2013-01-18 08:42:00,
2013-01-18 02:52:00,32.0,28.0,30.57,WNW,292,0.0,0.0,85,0.00,,,0.00,,2013-01-18 08:52:00,
2013-01-18 03:02:00,32.0,28.0,30.57,WNW,292,0.0,1.0,85,0.00,,,0.00,,2013-01-18 09:02:00,
2013-01-18 03:12:00,32.0,28.0,30.57,WNW,292,0.0,1.0,85,0.00,,,0.00,,2013-01-18 09:12:00,
2013-01-18 03:22:00,32.0,28.0,30.57,WNW,292,0.0,1.0,85,0.00,,,0.00,,2013-01-18 09:22:00,
2013-01-18 03:32:00,32.0,28.0,30.57,WNW,292,0.0,0.0,86,0.00,,,0.00,,2013-01-18 09:32:00,
2013-01-18 03:42:00,32.0,28.0,30.57,WNW,292,0.0,0.0,86,0.00,,,0.00,,2013-01-18 09:42:00,
2013-01-18 03:52:00,32.0,28.0,30.57,WNW,292,0.0,0.0,86,0.00,,,0.00,,2013-01-18 09:52:00,
2013-01-18 04:02:00,32.0,28.0,30.56,WNW,292,0.0,0.0,86,0.00,,,0.00,,2013-01-18 10:02:00,
2013-01-18 04:12:00,32.0,28.0,30.56,WNW,292,0.0,0.0,86,0.00,,,0.00,,2013-01-18 10:12:00,
2013-01-18 04:22:00,32.0,29.0,30.56,WNW,292,0.0,0.0,87,0.00,,,0.00,,2013-01-18 10:22:00,
2013-01-18 04:32:00,32.0,29.0,30.56,WNW,292,0.0,0.0,87,0.00,,,0.00,,2013-01-18 10:32:00,
2013-01-18 04:42:00,32.0,29.0,30.56,WNW,292,0.0,0.0,87,0.00,,,0.00,,2013-01-18 10:42:00,
2013-01-18 04:52:00,32.0,29.0,30.56,WNW,292,0.0,0.0,87,0.00,,,0.00,,2013-01-18 10:52:00,
2013-01-18 05:02:00,32.0,29.0,30.55,WNW,292,0.0,0.0,87,0.00,,,0.00,,2013-01-18 11:02:00,
2013-01-18 05:12:00,32.0,29.0,30.55,WNW,292,0.0,0.0,87,0.00,,,0.00,,2013-01-18 11:12:00,
2013-01-18 05:22:00,32.0,29.0,30.55,WNW,292,0.0,0.0,87,0.00,,,0.00,,2013-01-18 11:22:00,
2013-01-18 05:32:00,32.0,29.0,30.55,WNW,292,0.0,1.0,88,0.00,,,0.00,,2013-01-18 11:32:00,
2013-01-18 05:42:00,32.0,29.0,30.55,WNW,292,0.0,1.0,88,0.00,,,0.00,,2013-01-18 11:42:00,
2013-01-18 05:52:00,32.0,29.0,30.55,WNW,292,0.0,1.0,88,0.00,,,0.00,,2013-01-18 11:52:00,
2013-01-18 06:02:00,32.0,29.0,30.55,WNW,292,0.0,0.0,88,0.00,,,0.00,,2013-01-18 12:02:00,
2013-01-18 06:12:00,32.0,29.0,30.55,WNW,292,0.0,0.0,88,0.00,,,0.00,,2013-01-18 12:12:00,
2013-01-18 06:22:00,32.0,29.0,30.55,WNW,292,0.0,0.0,88,0.00,,,0.00,,2013-01-18 12:22:00,
2013-01-18 06:33:00,32.0,29.0,30.55,WNW,292,0.0,0.0,88,0.00,,,0.00,,2013-01-18 12:33:00,
2013-01-18 06:42:00,32.0,29.0,30.55,WNW,292,0.0,0.0,88,0.00,,,0.00,,2013-01-18 12:42:00,
2013-01-18 06:52:00,32.0,29.0,30.55,WNW,292,0.0,1.0,88,0.00,,,0.00,,2013-01-18 12:52:00,
2013-01-18 07:03:00,32.0,29.0,30.55,WNW,292,0.0,0.0,88,0.00,,,0.00,,2013-01-18 13:03:00,
2013-01-18 07:12:00,32.0,29.0,30.55,WNW,292,0.0,0.0,88,0.00,,,0.00,,2013-01-18 13:12:00,
2013-01-18 07:23:00,32.0,29.0,30.55,WNW,292,0.0,1.0,88,0.00,,,0.00,,2013-01-18 13:23:00,
2013-01-18 07:33:00,32.0,29.0,30.56,WNW,292,0.0,1.0,89,0.00,,,0.00,,2013-01-18 13:33:00,
2013-01-18 07:43:00,32.0,29.0,30.56,WNW,292,0.0,1.0,89,0.00,,,0.00,,2013-01-18 13:43:00,
2013-01-18 07:53:00,32.0,29.0,30.56,WNW,292,0.0,1.0,89,0.00,,,0.00,,2013-01-18 13:53:00,
2013-01-18 08:03:00,32.0,29.0,30.56,WNW,292,0.0,1.0,89,0.00,,,0.00,,2013-01-18 14:03:00,
2013-01-18 08:12:00,32.0,29.0,30.56,WNW,292,0.0,1.0,89,0.00,,,0.00,,2013-01-18 14:12:00,
2013-01-18 08:22:00,32.0,29.0,30.56,WNW,292,0.0,2.0,89,0.00,,,0.00,,2013-01-18 14:22:00,
2013-01-18 08:33:00,32.0,29.0,30.57,WNW,292,0.0,2.0,89,0.00,,,0.00,,2013-01-18 14:33:00,
2013-01-18 08:42:00,32.0,29.0,30.57,WNW,292,0.0,2.0,89,0.00,,,0.00,,2013-01-18 14:42:00,
2013-01-18 08:53:00,32.0,29.0,30.57,WNW,292,0.0,1.0,90,0.00,,,0.00,,2013-01-18 14:53:00,
2013-01-18 09:03:00,34.0,32.0,30.56,WNW,292,0.0,0.0,91,0.00,,,0.00,,2013-01-18 15:03:00,
2013-01-18 09:12:00,34.0,32.0,30.56,WNW,292,0.0,0.0,91,0.00,,,0.00,,2013-01-18 15:12:00,
2013-01-18 09:23:00,36.0,33.0,30.56,South,186,0.0,2.0,90,0.00,,,0.00,,2013-01-18 15:23:00,
2013-01-18 09:33:00,40.0,36.0,30.56,South,177,0.0,3.0,84,0.00,,,0.00,,2013-01-18 15:33:00,
2013-01-18 09:43:00,40.0,36.0,30.56,South,177,0.0,3.0,84,0.00,,,0.00,,2013-01-18 15:43:00,
2013-01-18 09:53:00,43.0,36.0,30.56,SSE,150,1.0,6.0,77,0.00,,,0.00,,2013-01-18 15:53:00,
2013-01-18 10:03:00,46.0,36.0,30.56,SE,145,2.0,10.0,67,0.00,,,0.00,,2013-01-18 16:03:00,
2013-01-18 10:12:00,46.0,36.0,30.56,SE,145,2.0,10.0,67,0.00,,,0.00,,2013-01-18 16:12:00,
2013-01-18 10:23:00,48.0,37.0,30.55,SSE,162,2.0,9.0,65,0.00,,,0.00,,2013-01-18 16:23:00,
2013-01-18 10:33:00,50.0,37.0,30.56,SSE,150,4.0,12.0,61,0.00,,,0.00,,2013-01-18 16:33:00,
2013-01-18 10:42:00,50.0,37.0,30.56,SSE,150,4.0,12.0,61,0.00,,,0.00,,2013-01-18 16:42:00,
2013-01-18 10:52:00,50.0,37.0,30.55,SSE,157,2.0,10.0,60,0.00,,,0.00,,2013-01-18 16:52:00,
2013-01-18 11:03:00,52.0,38.0,30.55,South,183,2.0,7.0,58,0.00,,,0.00,,2013-01-18 17:03:00,
2013-01-18 11:13:00,52.0,38.0,30.55,South,183,2.0,7.0,58,0.00,,,0.00,,2013-01-18 17:13:00,
2013-01-18 11:23:00,53.0,38.0,30.55,SSE,157,2.0,10.0,56,0.00,,,0.00,,2013-01-18 17:23:00,
2013-01-18 11:33:00,54.0,38.0,30.54,SSE,152,2.0,6.0,55,0.00,,,0.00,,2013-01-18 17:33:00,
2013-01-18 11:42:00,54.0,38.0,30.54,SSE,152,2.0,6.0,55,0.00,,,0.00,,2013-01-18 17:42:00,
2013-01-18 11:53:00,55.0,38.0,30.53,SSE,153,2.0,6.0,53,0.00,,,0.00,,2013-01-18 17:53:00,
2013-01-18 12:03:00,57.0,39.0,30.52,South,174,2.0,12.0,50,0.00,,,0.00,,2013-01-18 18:03:00,
2013-01-18 12:13:00,57.0,39.0,30.52,South,174,2.0,12.0,50,0.00,,,0.00,,2013-01-18 18:13:00,
2013-01-18 12:23:00,57.0,39.0,30.51,South,177,1.0,10.0,50,0.00,,,0.00,,2013-01-18 18:23:00,
2013-01-18 12:33:00,58.0,37.0,30.49,SSW,203,2.0,6.0,46,0.00,,,0.00,,2013-01-18 18:33:00,
2013-01-18 12:43:00,58.0,37.0,30.49,SSW,203,2.0,6.0,46,0.00,,,0.00,,2013-01-18 18:43:00,
2013-01-18 12:52:00,58.0,38.0,30.48,SSW,196,2.0,6.0,48,0.00,,,0.00,,2013-01-18 18:52:00,
2013-01-18 13:03:00,59.0,38.0,30.47,SSE,157,2.0,7.0,45,0.00,,,0.00,,2013-01-18 19:03:00,
2013-01-18 13:12:00,59.0,38.0,30.47,SSE,157,2.0,7.0,45,0.00,,,0.00,,2013-01-18 19:12:00,
2013-01-18 13:22:00,59.0,38.0,30.47,South,175,2.0,7.0,45,0.00,,,0.00,,2013-01-18 19:22:00,
2013-01-18 13:33:00,59.0,38.0,30.45,SSW,193,2.0,8.0,45,0.00,,,0.00,,2013-01-18 19:33:00,
2013-01-18 13:42:00,59.0,38.0,30.45,SSW,193,2.0,8.0,45,0.00,,,0.00,,2013-01-18 19:42:00,
2013-01-18 13:52:00,59.0,38.0,30.45,SSW,198,2.0,6.0,45,0.00,,,0.00,,2013-01-18 19:52:00,
2013-01-18 14:03:00,59.0,38.0,30.43,SSW,200,2.0,7.0,45,0.00,,,0.00,,2013-01-18 20:03:00,
2013-01-18 14:12:00,59.0,38.0,30.43,SSW,200,2.0,7.0,45,0.00,,,0.00,,2013-01-18 20:12:00,
2013-01-18 14:23:00,60.0,39.0,30.43,South,174,1.0,5.0,45,0.00,,,0.00,,2013-01-18 20:23:00,
2013-01-18 14:33:00,60.0,38.0,30.42,SSE,164,3.0,10.0,44,0.00,,,0.00,,2013-01-18 20:33:00,
2013-01-18 14:42:00,60.0,38.0,30.42,SSE,164,3.0,10.0,44,0.00,,,0.00,,2013-01-18 20:42:00,
2013-01-18 14:52:00,61.0,39.0,30.42,SSW,212,1.0,9.0,44,0.00,,,0.00,,2013-01-18 20:52:00,
2013-01-18 15:03:00,60.0,37.0,30.41,SW,230,2.0,6.0,43,0.00,,,0.00,,2013-01-18 21:03:00,
2013-01-18 15:13:00,60.0,37.0,30.41,SW,230,2.0,6.0,43,0.00,,,0.00,,2013-01-18 21:13:00,
2013-01-18 15:22:00,60.0,37.0,30.41,SSE,158,2.0,9.0,43,0.00,,,0.00,,2013-01-18 21:22:00,
2013-01-18 15:33:00,60.0,37.0,30.40,SSE,151,1.0,5.0,43,0.00,,,0.00,,2013-01-18 21:33:00,
2013-01-18 15:42:00,60.0,37.0,30.40,SSE,151,1.0,5.0,43,0.00,,,0.00,,2013-01-18 21:42:00,
2013-01-18 15:52:00,60.0,37.0,30.40,South,170,1.0,7.0,43,0.00,,,0.00,,2013-01-18 21:52:00,
2013-01-18 16:03:00,60.0,37.0,30.39,South,177,2.0,9.0,43,0.00,,,0.00,,2013-01-18 22:03:00,
2013-01-18 16:12:00,60.0,37.0,30.39,South,177,2.0,9.0,43,0.00,,,0.00,,2013-01-18 22:12:00,
2013-01-18 16:22:00,60.0,38.0,30.39,South,170,2.0,7.0,44,0.00,,,0.00,,2013-01-18 22:22:00,
2013-01-18 16:32:00,60.0,38.0,30.39,SSE,166,1.0,5.0,44,0.00,,,0.00,,2013-01-18 22:32:00,
2013-01-18 16:42:00,60.0,38.0,30.39,SSE,166,1.0,5.0,44,0.00,,,0.00,,2013-01-18 22:42:00,
2013-01-18 16:52:00,59.0,37.0,30.39,SSE,164,2.0,5.0,44,0.00,,,0.00,,2013-01-18 22:52:00,
2013-01-18 17:03:00,59.0,38.0,30.39,SSW,201,0.0,5.0,45,0.00,,,0.00,,2013-01-18 23:03:00,
2013-01-18 17:12:00,59.0,38.0,30.39,SSW,201,0.0,5.0,45,0.00,,,0.00,,2013-01-18 23:12:00,
2013-01-18 17:22:00,59.0,38.0,30.39,SSW,196,1.0,5.0,45,0.00,,,0.00,,2013-01-18 23:22:00,
2013-01-18 17:33:00,58.0,38.0,30.38,SSE,156,0.0,3.0,47,0.00,,,0.00,,2013-01-18 23:33:00,
2013-01-18 17:42:00,58.0,38.0,30.38,SSE,156,0.0,3.0,47,0.00,,,0.00,,2013-01-18 23:42:00,
2013-01-18 17:52:00,58.0,38.0,30.38,SE,136,0.0,3.0,47,0.00,,,0.00,,2013-01-18 23:52:00,
2013-01-18 18:02:00,57.0,38.0,30.38,South,188,0.0,2.0,48,0.00,,,0.00,,2013-01-19 00:02:00,
2013-01-18 18:12:00,57.0,38.0,30.38,South,188,0.0,2.0,48,0.00,,,0.00,,2013-01-19 00:12:00,
2013-01-18 18:22:00,56.0,37.0,30.39,South,178,0.0,3.0,49,0.00,,,0.00,,2013-01-19 00:22:00,
2013-01-18 18:32:00,55.0,37.0,30.39,SW,228,0.0,1.0,51,0.00,,,0.00,,2013-01-19 00:32:00,
2013-01-18 18:43:00,55.0,37.0,30.39,SW,228,0.0,1.0,51,0.00,,,0.00,,2013-01-19 00:43:00,
2013-01-18 18:53:00,54.0,37.0,30.39,SW,227,0.0,1.0,52,0.00,,,0.00,,2013-01-19 00:53:00,
2013-01-18 19:02:00,53.0,37.0,30.39,SW,224,0.0,1.0,54,0.00,,,0.00,,2013-01-19 01:02:00,
2013-01-18 19:12:00,53.0,37.0,30.39,SW,224,0.0,1.0,54,0.00,,,0.00,,2013-01-19 01:12:00,
2013-01-18 19:22:00,52.0,36.0,30.39,SW,224,0.0,1.0,55,0.00,,,0.00,,2013-01-19 01:22:00,
2013-01-18 19:32:00,51.0,36.0,30.39,SW,224,0.0,0.0,57,0.00,,,0.00,,2013-01-19 01:32:00,
2013-01-18 19:42:00,51.0,36.0,30.39,SW,224,0.0,0.0,57,0.00,,,0.00,,2013-01-19 01:42:00,
2013-01-18 19:52:00,51.0,37.0,30.39,SW,224,0.0,1.0,58,0.00,,,0.00,,2013-01-19 01:52:00,
2013-01-18 20:02:00,50.0,36.0,30.39,SW,223,0.0,1.0,59,0.00,,,0.00,,2013-01-19 02:02:00,
2013-01-18 20:12:00,50.0,36.0,30.39,SW,223,0.0,1.0,59,0.00,,,0.00,,2013-01-19 02:12:00,
2013-01-18 20:22:00,50.0,37.0,30.39,SW,223,0.0,0.0,60,0.00,,,0.00,,2013-01-19 02:22:00,
2013-01-18 20:33:00,49.0,36.0,30.38,SW,223,0.0,0.0,61,0.00,,,0.00,,2013-01-19 02:33:00,
2013-01-18 20:42:00,49.0,36.0,30.38,SW,223,0.0,0.0,61,0.00,,,0.00,,2013-01-19 02:42:00,
2013-01-18 20:52:00,48.0,36.0,30.38,SW,223,0.0,1.0,62,0.00,,,0.00,,2013-01-19 02:52:00,
2013-01-18 21:03:00,48.0,36.0,30.38,SW,223,0.0,0.0,63,0.00,,,0.00,,2013-01-19 03:03:00,
2013-01-18 21:12:00,48.0,36.0,30.38,SW,223,0.0,0.0,63,0.00,,,0.00,,2013-01-19 03:12:00,
2013-01-18 21:22:00,48.0,36.0,30.38,SW,223,0.0,0.0,64,0.00,,,0.00,,2013-01-19 03:22:00,
2013-01-18 21:32:00,48.0,36.0,30.37,SW,223,0.0,1.0,63,0.00,,,0.00,,2013-01-19 03:32:00,
2013-01-18 21:43:00,48.0,36.0,30.37,SW,223,0.0,1.0,63,0.00,,,0.00,,2013-01-19 03:43:00,
2013-01-18 21:52:00,48.0,36.0,30.36,SSE,159,0.0,2.0,63,0.00,,,0.00,,2013-01-19 03:52:00,
2013-01-18 22:02:00,48.0,36.0,30.36,SSE,159,0.0,1.0,63,0.00,,,0.00,,2013-01-19 04:02:00,
2013-01-18 22:12:00,48.0,36.0,30.36,SSE,159,0.0,1.0,63,0.00,,,0.00,,2013-01-19 04:12:00,
2013-01-18 22:22:00,48.0,36.0,30.36,SSE,159,0.0,1.0,63,0.00,,,0.00,,2013-01-19 04:22:00,
2013-01-18 22:32:00,47.0,35.0,30.35,SSE,159,0.0,2.0,64,0.00,,,0.00,,2013-01-19 04:32:00,
2013-01-18 22:42:00,47.0,35.0,30.35,SSE,159,0.0,2.0,64,0.00,,,0.00,,2013-01-19 04:42:00,
2013-01-18 22:52:00,47.0,36.0,30.35,SSE,159,0.0,2.0,65,0.00,,,0.00,,2013-01-19 04:52:00,
2013-01-18 23:03:00,46.0,35.0,30.34,SSE,164,0.0,2.0,65,0.00,,,0.00,,2013-01-19 05:03:00,
2013-01-18 23:12:00,46.0,35.0,30.34,SSE,164,0.0,2.0,65,0.00,,,0.00,,2013-01-19 05:12:00,
2013-01-18 23:22:00,46.0,35.0,30.34,SE,142,0.0,3.0,65,0.00,,,0.00,,2013-01-19 05:22:00,
2013-01-18 23:33:00,46.0,35.0,30.33,SE,139,0.0,3.0,65,0.00,,,0.00,,2013-01-19 05:33:00,
2013-01-18 23:42:00,46.0,35.0,30.33,SE,139,0.0,3.0,65,0.00,,,0.00,,2013-01-19 05:42:00,
2013-01-18 23:52:00,46.0,35.0,30.32,SE,143,0.0,3.0,65,0.00,,,0.00,,2013-01-19 05:52:00,